Terminal Aerodrome Forecast
Issued by NWS Denver/Boulder, CO

Home | Current Version | Previous Version | Text Only | Print | Product List | Glossary On
Versions: 1 2 3 4 5 6 7 8 9 10 11 12 13 14 15 16 17 18 19 20 21 22 23 24 25 26 27 28 29 30 31 32 33 34 35 36 37 38 39 40 41 42 43 44 45 46 47 48 49 50
000
FTUS45 KBOU 290522
TAFDEN
TAF
KDEN 290522Z 2906/3012 03008KT P6SM SCT090 SCT140
     FM290630 03014G22KT P6SM BKN090
     FM290800 05010KT P6SM SCT050 BKN080
     FM291000 11006KT P6SM SCT030 BKN050
     FM291700 12008KT P6SM SCT030 BKN070
     FM292300 14010KT P6SM SCT040 SCT080
     FM300100 19010KT P6SM FEW080 BKN200
     FM300800 22012KT P6SM SCT080 OVC140=

USA.gov is the U.S. government's official web portal to all federal, state and local government web resources and services.